Simultaneous Nadir Overpasses (SNOs) Predictions

Prediction of SNOs between AQUA and NPP Satellite Orbit:

Table of predicted SNOs for the next 14.0 days since TLE Epoch: 12/19/2015
Index Date (AQUA) Time (AQUA) Lat,Lon (AQUA) SZA (AQUA ) Date (NPP) Time (NPP) Lat,Lon (NPP) SZA (NPP ) Distance(km) Time Diff (sec)
1 12/21/2015 12:27:08 73.30,-134.31 122.71 12/21/2015 12:26:26 73.30,-134.31 122.75 0.05 42
2 12/21/2015 13:15:59 -75.20, 37.80 59.23 12/21/2015 13:16:33 -75.21, 37.87 59.28 2.10 34
3 12/24/2015 04:43:31 73.64, -17.74 122.44 12/24/2015 04:43:12 73.63, -17.81 122.48 2.24 19
4 12/24/2015 05:32:24 -75.42, 154.27 59.40 12/24/2015 05:33:21 -75.42, 154.27 59.45 0.07 57
5 12/26/2015 20:10:50 -72.90, -71.02 56.81 12/26/2015 20:09:36 -72.91, -70.95 56.75 2.34 74
6 12/26/2015
